Lapse_Rate
6.1 6.4 5.6 4.9 4.9 4.6 4.5 4.6 3.9 3.4 2.8 2.5 2.3 2.4 2.7 3.1 3.4 3.5 3.4 2.6 3.2 2.8 2.2 1.7 1.6 1.8 1.0 1.5 1.5 2.0 4.6 5.3
4.3 5.0 5.7 5.3 4.6 4.4 4.0 4.4 4.1 2.9 2.5 2.4 2.5 2.4 2.9 3.4 3.6 3.7 2.8 2.5 2.7 2.5 2.6 1.7 1.0 0.2 0.7 1.2 1.6 3.0 4.7 5.8
2.9 2.4 2.5 3.9 4.6 4.6 4.2 4.3 4.5 4.1 3.1 2.6 1.5 2.8 2.9 3.8 3.5 3.0 2.4 2.5 2.4 2.7 2.8 2.1 0.8 -0.2 0.8 1.1 3.0 4.2 5.2 7.0
3.0 3.2 2.8 3.1 3.4 3.5 4.1 4.3 3.8 3.8 3.3 2.8 2.9 3.3 3.1 3.2 2.7 2.3 2.3 2.0 1.8 1.9 1.0 0.6 0.4 2.2 1.7 2.4 3.4 4.2 5.3 7.5
1.6 2.3 3.0 3.5 3.2 2.9 3.6 2.8 2.5 1.9 2.9 2.2 2.5 2.2 1.5 1.1 1.2 1.6 1.5 0.4 1.3 1.6 0.2 1.1 1.3 1.8 2.1 2.8 3.1 3.8 4.6 5.3
2.1 2.4 2.7 2.9 2.6 3.3 2.3 2.0 1.8 3.3 2.6 1.8 0.8 0.5 1.0 1.3 1.0 0.8 1.1 1.6 1.1 0.9 0.4 0.5 0.7 1.2 1.8 1.9 2.5 3.1 3.9 5.1
2.7 2.3 2.3 2.7 2.6 2.0 1.8 2.1 2.8 3.1 2.6 1.9 0.5 0.5 0.9 0.6 0.5 0.5 1.2 1.0 1.8 1.7 1.8 1.6 1.5 1.7 1.6 1.3 0.8 1.7 3.0 3.2
3.1 2.7 2.6 2.6 2.3 2.1 2.1 2.0 1.9 2.4 2.2 1.8 1.7 1.2 0.7 0.3 1.3 1.5 1.8 1.9 2.0 2.4 2.4 2.5 2.2 1.9 1.2 1.3 1.1 1.6 1.8 2.4
3.0 3.0 2.3 2.3 1.9 1.4 1.1 0.9 1.1 1.8 1.8 1.4 1.0 0.7 0.9 1.2 1.4 1.7 1.7 1.5 1.6 1.7 1.5 2.2 2.4 1.8 1.9 1.7 1.6 1.6 1.7 1.7
3.3 3.0 2.5 2.0 2.4 1.8 1.4 1.1 1.2 1.5 1.9 1.9 1.0 1.3 1.6 1.4 1.8 1.5 1.1 1.4 2.2 2.7 2.8 2.6 2.2 2.6 2.0 2.5 2.4 2.3 1.9 1.8
2.9 2.5 2.4 2.4 1.5 1.4 1.2 1.0 1.8 1.9 2.1 2.2 1.4 1.8 1.5 2.0 1.7 1.0 1.0 1.8 2.2 2.3 3.1 2.2 1.7 1.9 2.1 2.7 2.8 2.7 2.6 2.1
3.3 2.3 2.6 2.5 1.2 1.1 1.3 1.3 1.2 1.5 2.8 2.1 1.6 2.2 1.8 2.3 1.8 1.5 1.3 1.9 1.1 1.9 2.0 2.4 2.2 2.2 2.7 2.9 3.4 3.2 2.8 2.5
3.3 2.1 2.2 3.1 2.2 1.7 2.9 3.2 2.1 0.9 2.2 2.1 1.9 1.7 1.9 2.1 1.8 0.9 1.8 2.7 1.9 2.1 1.9 1.1 1.4 1.8 2.1 3.7 4.1 4.2 4.3 4.1
3.4 2.3 1.6 3.2 3.5 3.4 2.0 2.2 2.7 1.9 1.3 1.7 2.3 2.1 1.6 2.1 2.0 1.8 1.4 1.3 1.6 1.9 2.1 1.9 2.1 3.1 4.6 4.4 6.5 5.9 5.5 5.8
2.9 2.3 1.4 2.2 3.1 2.6 1.4 0.8 1.8 2.5 1.4 2.0 1.8 1.8 1.8 2.0 1.9 1.3 1.1 1.7 1.5 1.8 2.2 2.2 1.8 1.8 3.8 6.0 7.4 8.0 6.6 6.9
4.1 3.4 1.2 1.4 2.0 3.4 2.4 2.6 2.4 2.9 2.1 1.9 1.9 2.3 2.5 2.0 1.8 1.9 1.7 1.5 1.5 1.5 2.2 2.7 2.9 2.2 2.3 2.8 3.7 4.5 8.2 7.7
4.7 3.4 2.0 1.7 2.0 2.9 3.5 3.4 3.3 1.7 2.0 1.4 1.2 1.4 1.8 1.6 1.1 1.2 1.4 1.4 1.5 1.3 1.1 1.8 3.0 3.6 4.2 3.3 3.8 4.4 4.8 6.4
3.1 3.3 2.6 1.7 2.6 3.1 3.8 3.1 2.1 2.0 1.7 0.8 0.9 0.7 2.0 2.1 1.2 1.5 1.0 0.9 1.2 1.0 1.3 1.8 2.2 3.2 3.4 3.5 4.8 5.7 5.6 5.4
4.0 4.3 3.3 2.3 3.1 2.9 3.6 3.3 2.8 1.9 1.1 0.5 0.3 0.9 1.6 1.3 1.4 1.3 1.5 0.7 0.1 0.1 0.7 1.1 1.9 2.7 2.7 3.2 3.2 3.7 4.1 5.0
3.9 5.2 4.7 3.2 2.9 2.5 2.6 3.8 3.9 2.8 1.0 1.2 0.8 1.2 1.4 1.3 1.7 1.5 1.0 0.5 0.2 0.5 1.2 1.1 1.0 1.5 1.5 2.3 2.8 2.9 3.6 4.9
Wind_Speed
13 16 16 20 20 20 20 20 22 22 22 21 20 18 17 17 16 16 15 17 12 14 16 18 18 16 18 15 16 17 17 15
11 17 15 15 15 20 20 19 20 22 21 19 18 21 20 18 16 16 17 16 13 13 13 18 20 21 18 14 15 18 17 15
8 8 13 14 17 15 17 21 21 20 21 19 16 12 18 16 16 15 17 16 16 15 11 15 25 23 17 15 14 15 16 15
8 9 9 13 13 16 14 16 15 15 14 16 15 14 16 17 17 16 16 17 17 15 15 13 19 14 15 13 15 17 17 19
9 9 12 11 9 11 12 11 11 12 16 16 16 15 13 12 11 9 11 13 11 9 13 12 15 15 14 14 16 16 16 18
11 10 8 8 11 10 10 9 10 11 13 16 14 11 12 10 9 8 8 10 13 10 12 14 18 17 17 16 16 15 14 15
11 10 10 8 6 7 8 7 10 15 14 12 12 11 7 9 9 8 8 11 10 11 14 15 17 17 16 18 18 18 17 17
12 11 10 10 8 8 6 9 10 11 12 13 13 11 11 10 10 9 9 11 12 13 13 14 13 16 16 18 18 17 17 16
12 12 10 11 10 8 8 8 10 8 8 11 13 13 13 12 10 8 11 12 14 15 17 17 13 16 13 17 17 17 16 15
14 11 13 12 12 9 8 10 9 10 11 12 12 12 14 13 9 8 14 13 13 12 9 11 11 10 10 10 14 15 16 16
16 14 14 14 11 9 8 9 7 9 12 12 12 12 12 12 10 12 15 13 11 9 9 11 11 11 11 9 11 11 13 14
15 13 14 15 10 9 6 6 5 8 10 10 14 11 11 9 11 12 13 7 8 10 12 11 12 12 11 10 9 11 13 12
14 15 15 13 12 11 10 9 7 5 9 12 13 13 13 10 9 11 11 9 10 12 12 15 11 12 9 10 9 10 10 10
15 16 16 15 12 10 6 9 6 5 6 11 12 11 12 12 11 8 10 9 12 13 14 10 9 6 4 6 4 4 6 7
20 20 19 15 17 11 9 8 7 6 7 7 8 13 12 10 9 8 9 9 10 12 12 11 9 5 6 3 4 3 7 3
21 20 21 18 19 15 18 12 11 7 8 8 7 12 14 14 13 10 8 7 11 10 9 8 10 8 4 3 3 7 4 5
18 17 18 17 18 16 14 13 8 10 9 12 7 7 10 11 12 10 7 6 7 9 9 9 7 7 6 5 4 4 5 3
16 18 18 17 18 16 17 17 15 12 11 8 7 5 7 10 11 10 10 8 7 7 7 7 6 6 5 5 5 4 6 4
15 19 18 17 17 16 16 17 17 17 16 10 11 8 7 9 9 9 7 10 10 10 8 8 7 6 6 5 4 4 4 4
16 17 16 17 17 17 15 19 11 11 12 11 8 8 9 11 10 11 12 12 11 10 7 7 9 7 9 6 5 4 5 6
Wind_Direction
158 152 134 123 120 121 122 123 124 123 121 125 128 132 126 122 116 114 112 103 111 110 108 107 96 104 90 80 78 78 81 77
146 149 147 134 129 129 122 119 120 120 125 124 134 127 122 118 114 118 110 106 107 101 107 111 104 90 91 89 84 81 80 77
142 135 132 138 131 127 122 127 124 124 127 132 118 112 120 123 112 114 110 116 115 110 111 110 101 87 94 85 83 83 82 76
152 149 136 129 131 129 135 135 133 135 138 141 131 128 123 121 119 116 119 118 113 117 114 99 91 106 96 84 86 86 81 75
158 153 152 144 143 137 140 136 135 136 147 145 138 126 115 108 122 134 131 119 120 125 99 88 102 103 99 96 91 85 81 77
162 155 156 150 150 155 145 144 142 158 161 153 138 129 125 137 138 139 125 132 126 119 104 102 100 102 101 94 87 86 83 77
177 163 154 159 149 137 144 150 165 158 159 159 144 141 142 147 137 127 136 126 117 116 116 113 107 104 97 93 86 84 79 77
177 172 157 151 157 148 145 149 153 159 159 160 162 147 147 147 143 140 135 131 131 128 126 118 109 104 94 89 88 87 83 81
175 169 162 157 155 146 141 148 147 154 157 161 157 153 152 150 143 142 139 135 131 130 123 121 114 103 95 88 86 83 80 76
170 170 168 162 162 154 154 154 159 160 164 168 161 158 159 153 149 144 145 142 141 138 134 126 112 108 99 90 88 85 82 78
173 170 171 164 153 149 145 148 156 163 164 164 166 162 165 156 150 146 150 145 143 136 137 125 122 110 102 95 87 81 79 78
180 168 167 163 151 142 141 143 146 156 164 163 158 163 162 156 147 149 149 143 142 141 137 127 122 119 105 90 82 78 74 70
179 167 166 163 166 158 163 170 163 145 159 158 160 158 158 154 155 153 155 154 147 145 134 130 125 131 114 92 78 72 70 70
181 178 172 176 178 178 160 153 158 146 142 152 155 159 159 163 164 168 155 142 146 150 149 140 138 164 128 121 135 104 71 72
184 182 176 175 171 157 132 121 131 150 160 159 155 158 157 162 167 166 158 151 157 165 167 160 152 170 170 117 153 150 148 126
193 182 174 172 168 171 167 168 162 170 167 154 151 164 164 164 162 171 170 162 162 164 166 162 162 155 146 90 64 128 163 154
195 181 179 172 176 170 168 167 161 152 157 146 145 151 165 163 155 159 153 157 159 161 166 169 161 160 158 156 139 118 125 146
182 180 179 172 169 175 172 165 159 152 156 150 149 145 157 164 150 155 147 142 153 149 154 163 158 162 165 161 166 171 171 153
184 182 179 173 170 173 173 172 164 162 159 158 152 156 166 166 156 153 148 144 134 128 132 139 153 153 152 150 147 147 155 152
184 188 181 176 174 170 167 170 166 165 160 153 151 159 164 161 155 149 141 134 127 127 122 121 123 122 127 129 123 132 158 158